"Pseudo-MPEC" for P129vea
Created 2025 Apr 29 9:31:10 UT using Find_Orb
Click here for an explanation of pseudo-MPECs
Astrometry:
P129vea* C2025 04 26.52641114 42 50.741+17 12 14.96 ~4QEl 22.45wXNEOCPF51
P129vea C2025 04 26.53920514 42 51.160+17 12 24.15 ~4QEl 22.52wXNEOCPF51
P129vea C2025 04 26.55194714 42 51.584+17 12 33.15 ~4QEl 22.56wXNEOCPF51
P129vea KC2025 04 27.23406514 43 21.284+17 20 42.97 ~4R6H 21.91GVNEOCPV06
P129vea KC2025 04 27.23803614 43 21.428+17 20 45.49 ~4R6H 22.21GVNEOCPV06
P129vea KC2025 04 27.24201214 43 21.594+17 20 48.23 ~4R6H 21.54GVNEOCPV06
P129vea KC2025 04 27.24598914 43 21.781+17 20 50.96 ~4R6H VNEOCPV06
P129vea 3C2025 04 27.56872914 43 33.352+17 24 43.45 ~4REH 21.98GVNEOCPT14
P129vea 3C2025 04 27.56994114 43 33.393+17 24 44.20 ~4REH 22.20GVNEOCPT14
P129vea 3C2025 04 27.57115314 43 33.434+17 24 45.04 ~4REH 21.93GVNEOCPT14
P129vea KC2025 04 28.47045514 44 10.892+17 34 58.80 ~4SBl 21.99GVNEOCPV06
P129vea KC2025 04 28.47363214 44 11.018+17 35 00.78 ~4SBl 21.97GVNEOCPV06
P129vea KC2025 04 28.47680914 44 11.119+17 35 02.47 ~4SBl 21.92GVNEOCPV06
P129vea KC2025 04 28.47998814 44 11.224+17 35 04.49 ~4SBl VNEOCPV06
Station data:
(F51) Pan-STARRS 1, Haleakala (N20.707234 W156.255910) US/Hawaii.
Observers J. Bulger, T. Lowe, A. Schultz, M. Willman. Measurers K.
Chambers, S. Chastel, T. de Boer, L. Denneau, J. Fairlamb, H. Flewelling,
M. Huber, C.-C. Lin, E. Magnier, Y. Ramanjooloo, R. Wainscoat, R. Weryk.
1.8-m Ritchey-Chrétien + CCD.
(T14) Mauna Kea-UH/Tholen NEO Follow-Up (CFHT) (N19.825252 W155.468876)
US/Hawaii. Observer R. Weryk. 3.6-m Canada-France-Hawaii Telescope.
(V06) Catalina Sky Survey-Kuiper (N32.416871 W110.732550) US/Arizona.
Observers T. A. Pruyne, B. M. Africano, E. J. Christensen, G. A. Farneth,
D. C. Fuls, A. R. Gibbs, A. D. Grauer, H. Gröller, J. A. Johnson, R. A.
Kowalski, S. M. Larson, G. J. Leonard, D. Rankin, R. L. Seaman, F. C.
Shelly, K. W. Wierzchoś. 1.55-m reflector + CCD.
Orbital elements: P129vea
Perihelion 2025 Jun 13.85135 +/- 0.23 TT = 20:25:56 (JD 2460840.35135)
Epoch 2025 Apr 28.0 TT = JDT 2460793.5 Earth MOID: 0.2147 Ju: 0.3707
M 351.72783623 +/- 0.20 Ma: 0.0064 AutoNEOCP
n 0.17656190 +/- 0.0045 Peri. 140.72637 +/- 1.0
a 3.14681615 +/- 0.0535 Node 116.78217 +/- 0.7
e 0.6159334 +/- 0.00607 Incl. 8.48063 +/- 0.053
P 5.58222 H 22.68 G 0.15 U 9.1
q 1.20858689 +/- 0.00417 Q 5.08504541 +/- 0.105 (J2000 ecliptic)
From 14 observations 2025 Apr. 26-28 (46.9 hr); mean residual 0".27
Residuals in arcseconds: 250426 F51 .03- .01- 250427 V06 .18+ .13+ 250428 V06 .03+ .31+ 250426 F51 .02- .04+ 250427 V06 .94+ .04- 250428 V06 .16+ .25+ 250426 F51 .02+ .03- 250427 T14 .01+ .02+ 250428 V06 .08- .10- 250427 V06 .41- .69+ 250427 T14 .00 .04- 250428 V06 .26- .12- 250427 V06 .27- .30+ 250427 T14 .01- .02- Ephemerides (geocentric): Date (UTC) HH RA Dec delta r elong mag " sig PA ---- -------- ------------ ------------ ------ ------ ----- --- -------- 2025 04 29 10 14 44 51.989 +17 45 29.58 .36359 1.3280 147.4 22.2 .512 93 2025 04 29 11 14 44 53.761 +17 45 56.29 .36340 1.3278 147.4 22.2 .526 93 2025 04 29 12 14 44 55.535 +17 46 22.94 .36321 1.3276 147.4 22.2 .539 93 2025 04 29 13 14 44 57.310 +17 46 49.52 .36302 1.3274 147.4 22.2 .554 93 2025 04 29 14 14 44 59.085 +17 47 16.05 .36283 1.3272 147.4 22.2 .568 94 2025 04 29 15 14 45 00.863 +17 47 42.51 .36264 1.3270 147.4 22.2 .583 94 2025 04 29 16 14 45 02.641 +17 48 08.91 .36245 1.3268 147.3 22.2 .598 94 2025 04 29 17 14 45 04.420 +17 48 35.25 .36226 1.3266 147.3 22.2 .613 94 2025 04 29 18 14 45 06.201 +17 49 01.53 .36207 1.3264 147.3 22.2 .629 95 2025 04 29 19 14 45 07.983 +17 49 27.75 .36189 1.3262 147.3 22.2 .644 95 2025 04 29 20 14 45 09.766 +17 49 53.91 .36170 1.3260 147.3 22.2 .660 95 2025 04 29 21 14 45 11.551 +17 50 20.00 .36151 1.3258 147.3 22.2 .677 95 2025 04 29 22 14 45 13.336 +17 50 46.03 .36132 1.3256 147.2 22.2 .693 96 2025 04 29 23 14 45 15.123 +17 51 12.00 .36113 1.3254 147.2 22.2 .710 96 2025 04 30 00 14 45 16.911 +17 51 37.91 .36094 1.3252 147.2 22.2 .728 96 2025 04 30 01 14 45 18.700 +17 52 03.76 .36076 1.3250 147.2 22.2 .745 96 2025 04 30 02 14 45 20.491 +17 52 29.54 .36057 1.3248 147.2 22.2 .763 96 2025 04 30 03 14 45 22.283 +17 52 55.26 .36038 1.3246 147.2 22.2 .781 97 2025 04 30 04 14 45 24.076 +17 53 20.91 .36020 1.3244 147.1 22.2 .799 97 2025 04 30 05 14 45 25.871 +17 53 46.51 .36001 1.3242 147.1 22.2 .818 97 2025 04 30 06 14 45 27.666 +17 54 12.04 .35982 1.3240 147.1 22.2 .837 97 2025 04 30 07 14 45 29.463 +17 54 37.51 .35963 1.3238 147.1 22.2 .856 97 2025 04 30 08 14 45 31.262 +17 55 02.91 .35945 1.3236 147.1 22.2 .876 98 2025 04 30 09 14 45 33.062 +17 55 28.25 .35926 1.3234 147.1 22.2 .896 98 2025 04 30 10 14 45 34.863 +17 55 53.53 .35908 1.3232 147.0 22.2 .916 98 2025 04 30 11 14 45 36.665 +17 56 18.74 .35889 1.3230 147.0 22.2 .936 98 2025 04 30 12 14 45 38.469 +17 56 43.89 .35870 1.3228 147.0 22.2 .957 98 2025 04 30 13 14 45 40.274 +17 57 08.97 .35852 1.3226 147.0 22.2 .978 98 2025 04 30 14 14 45 42.080 +17 57 33.99 .35833 1.3224 147.0 22.2 1.00 99 2025 04 30 15 14 45 43.888 +17 57 58.95 .35815 1.3222 147.0 22.2 1.02 99 2025 04 30 16 14 45 45.697 +17 58 23.84 .35796 1.3220 147.0 22.2 1.04 99 2025 04 30 17 14 45 47.508 +17 58 48.66 .35778 1.3218 146.9 22.2 1.07 99 2025 04 30 18 14 45 49.320 +17 59 13.43 .35759 1.3216 146.9 22.2 1.09 99 2025 04 30 19 14 45 51.133 +17 59 38.12 .35741 1.3214 146.9 22.2 1.11 99 2025 04 30 20 14 45 52.948 +18 00 02.75 .35722 1.3212 146.9 22.2 1.13 100 2025 04 30 21 14 45 54.764 +18 00 27.32 .35704 1.3210 146.9 22.2 1.16 100 2025 04 30 22 14 45 56.581 +18 00 51.82 .35686 1.3208 146.9 22.2 1.18 100 2025 04 30 23 14 45 58.400 +18 01 16.26 .35667 1.3206 146.8 22.2 1.21 100 2025 05 01 00 14 46 00.221 +18 01 40.63 .35649 1.3204 146.8 22.2 1.23 100 2025 05 01 01 14 46 02.043 +18 02 04.93 .35630 1.3202 146.8 22.2 1.25 100 2025 05 01 02 14 46 03.866 +18 02 29.17 .35612 1.3200 146.8 22.2 1.28 100 2025 05 01 03 14 46 05.691 +18 02 53.34 .35594 1.3198 146.8 22.2 1.31 101 2025 05 01 04 14 46 07.517 +18 03 17.45 .35575 1.3196 146.8 22.2 1.33 101 2025 05 01 05 14 46 09.345 +18 03 41.49 .35557 1.3194 146.7 22.2 1.36 101 2025 05 01 06 14 46 11.174 +18 04 05.46 .35539 1.3192 146.7 22.2 1.38 101 2025 05 01 07 14 46 13.004 +18 04 29.37 .35521 1.3190 146.7 22.2 1.41 101 2025 05 01 08 14 46 14.837 +18 04 53.21 .35502 1.3188 146.7 22.2 1.44 101 2025 05 01 09 14 46 16.670 +18 05 16.99 .35484 1.3186 146.7 22.2 1.46 101